Weather History for Buffalo, WY

Change the Weather History Date:

Monday, October 22, 2012

  Actual Average Record
Temperature  
Mean Temperature 42 °F 44 °F  
Max Temperature 50 °F 56 °F 78 °F (2003)
Min Temperature 36 °F 33 °F 16 °F (2002)
Degree Days  
Heating Degree Days 23 21  
Month to date heating degree days 390  
Since 1 July heating degree days 704  
Cooling Degree Days 0 0  
Month to date cooling degree days 0  
Year to date cooling degree days 491  
Moisture  
Dew Point 40 °F    
Average Humidity 89    
Maximum Humidity 100    
Minimum Humidity 82    
Precipitation  
Precipitation 0.04 in 0.03 in 0.09 in (2002)
Month to date precipitation 0.80  
Year to date precipitation 12.38  
Sea Level Pressure  
Sea Level Pressure 29.72 in    
Wind  
Wind Speed 10 mph (SSE)    
Max Wind Speed 21 mph    
Max Gust Speed 28 mph    
Visibility 9 miles    
Events Fog , Rain    
T = Trace of Precipitation, MM = Missing Value Source: NWS Daily Summary

Daily Weather History Graph

Daily Weather History Graph

Search for Another Location

Airport:

Trip Planner

Search our weather history database for the weather conditions in past years. The results will help you decide how hot, cold, wet, or windy it might be!

Date:

Astronomy

Oct. 22, 2012 Rise Set
Actual Time 7:31 AM MDT 6:10 PM MDT
Civil Twilight 7:01 AM MDT 6:39 PM MDT
Nautical Twilight 6:28 AM MDT 7:13 PM MDT
Astronomical Twilight 5:54 AM MDT 7:47 PM MDT
Moon 2:34 PM MDT (10/22) 12:05 AM MDT (10/22)
Length of Visible Light 11h 37m
Length of Day
10h 38m
First Quarter, 57% of the Moon is Illuminated
Oct 22
First Quarter
Oct 29
Full
Nov 6
Last Quarter
Nov 13
New
Nov 20
First Quarter

Hourly Weather History & Observations

Time (MDT) Temp. Windchill Dew Point Humidity Pressure Visibility Wind Dir Wind Speed Gust Speed Precip Events Conditions
12:53 AM 36.0 °F 29.6 °F 33.1 °F 89% 29.86 in 10.0 mi SE 8.1 mph - N/A   Clear
1:53 AM 37.9 °F 31.5 °F 35.1 °F 89% 29.84 in 10.0 mi SSE 9.2 mph - N/A   Clear
2:53 AM 37.9 °F 30.9 °F 35.1 °F 89% 29.83 in 10.0 mi SSE 10.4 mph - N/A   Clear
3:53 AM 41.0 °F 32.2 °F 37.0 °F 86% 29.79 in 10.0 mi South 18.4 mph - N/A   Partly Cloudy
4:53 AM 39.0 °F 34.0 °F 35.1 °F 86% 29.81 in 10.0 mi NNW 6.9 mph - N/A   Partly Cloudy
5:53 AM 37.0 °F 30.4 °F 35.1 °F 93% 29.85 in 10.0 mi NNW 9.2 mph - N/A   Clear
6:53 AM 37.0 °F 31.0 °F 35.1 °F 93% 29.85 in 10.0 mi NW 8.1 mph - N/A   Mostly Cloudy
7:53 AM 37.9 °F 34.4 °F 35.1 °F 89% 29.88 in 10.0 mi West 4.6 mph - 0.00 in Rain Light Rain
8:53 AM 39.0 °F - 37.0 °F 93% 29.86 in 9.0 mi Calm Calm - 0.01 in Rain Light Rain
9:53 AM 41.0 °F - 39.0 °F 93% 29.85 in 10.0 mi Calm Calm - 0.01 in Rain Light Rain
10:51 AM 42.8 °F 38.6 °F 39.2 °F 87% 29.83 in 0.8 mi ESE 6.9 mph - 0.02 in Rain Light Rain
11:02 AM 39.2 °F 33.6 °F 39.2 °F 100% 29.82 in 0.5 mi SE 8.1 mph - 0.00 in Fog , Rain Light Rain
11:05 AM 41.0 °F 35.8 °F 39.2 °F 93% 29.82 in 1.2 mi SE 8.1 mph - 0.00 in Rain Light Rain
11:07 AM 41.0 °F 35.2 °F 39.2 °F 93% 29.82 in 4.0 mi SE 9.2 mph - 0.00 in Rain Light Rain
11:53 AM 43.0 °F 38.2 °F 42.1 °F 97% 29.81 in 9.0 mi SSE 8.1 mph - 0.01 in Rain Light Rain
12:07 PM 44.6 °F 39.2 °F 42.8 °F 93% 29.80 in 9.0 mi SE 10.4 mph - 0.00 in Rain Light Rain
12:53 PM 46.0 °F 41.4 °F 44.1 °F 93% 29.77 in 10.0 mi SSE 9.2 mph - 0.00 in Rain Light Rain
1:53 PM 46.9 °F - 44.1 °F 90% 29.71 in 10.0 mi South 13.8 mph 20.7 mph 0.00 in Rain Light Rain
2:44 PM 48.2 °F - 42.8 °F 82% 29.69 in 10.0 mi SSE 17.3 mph 26.5 mph 0.00 in   Mostly Cloudy
2:53 PM 48.0 °F - 43.0 °F 83% 29.67 in 10.0 mi SSE 18.4 mph 25.3 mph 0.00 in   Mostly Cloudy
3:17 PM 46.4 °F 38.7 °F 42.8 °F 87% 29.66 in 10.0 mi SSE 20.7 mph 26.5 mph N/A   Mostly Cloudy
3:37 PM 46.4 °F 38.7 °F 42.8 °F 87% 29.66 in 10.0 mi SSE 20.7 mph 26.5 mph N/A   Overcast
3:53 PM 48.0 °F - 43.0 °F 83% 29.61 in 10.0 mi SSE 20.7 mph 27.6 mph N/A   Overcast
4:50 PM 48.2 °F - 42.8 °F 82% 29.62 in 10.0 mi SSE 18.4 mph 27.6 mph 0.01 in   Overcast
4:53 PM 48.0 °F - 44.1 °F 86% 29.59 in 10.0 mi SSE 16.1 mph 25.3 mph 0.01 in Rain Light Rain
5:46 PM 46.4 °F 39.0 °F 42.8 °F 87% 29.61 in 10.0 mi South 19.6 mph 27.6 mph 0.00 in Rain Light Rain
5:53 PM 46.9 °F - 43.0 °F 86% 29.59 in 10.0 mi South 20.7 mph - 0.00 in Rain Light Rain
6:00 PM 46.4 °F 39.2 °F 44.6 °F 93% 29.60 in 10.0 mi SSE 18.4 mph - 0.00 in Rain Light Rain
6:53 PM 46.9 °F - 43.0 °F 86% 29.57 in 10.0 mi SSE 17.3 mph - 0.00 in   Clear
7:53 PM 46.0 °F 40.6 °F 43.0 °F 89% 29.56 in 10.0 mi ESE 11.5 mph - N/A   Clear
8:53 PM 43.0 °F 37.2 °F 41.0 °F 93% 29.62 in 10.0 mi North 10.4 mph 27.6 mph N/A   Scattered Clouds
9:19 PM 42.8 °F 38.0 °F 41.0 °F 93% 29.63 in 10.0 mi NNW 8.1 mph - 0.00 in Rain Light Rain
9:32 PM 42.8 °F 37.5 °F 39.2 °F 87% 29.63 in 10.0 mi WNW 9.2 mph - 0.00 in   Mostly Cloudy
9:40 PM 42.8 °F 40.1 °F 39.2 °F 87% 29.63 in 10.0 mi NW 4.6 mph - 0.00 in   Mostly Cloudy
9:50 PM 42.8 °F 38.6 °F 39.2 °F 87% 29.63 in 10.0 mi WNW 6.9 mph - 0.00 in   Scattered Clouds
9:53 PM 42.1 °F 37.1 °F 39.9 °F 92% 29.62 in 10.0 mi WNW 8.1 mph - 0.00 in   Scattered Clouds
10:53 PM 46.0 °F 43.1 °F 41.0 °F 83% 29.60 in 10.0 mi Variable 5.8 mph - N/A   Mostly Cloudy